EW0123 Weather Reports


Display with metric or nautical units.
time (UTC)temp
F
wind
direction
speed
MPH
gust
MPH
rain 1hr
in
rain 24hr
in
rain mn
in
humidity
%
barometer
mb
20260505183004 59 190 3.0 7.0 0.00 0.00 0.00 80 1018.6
20260505181505 59 206 2.0 5.0 0.00 0.00 0.00 80 1018.6
20260505180004 58 207 2.0 6.0 0.00 0.00 0.00 81 1018.6
20260505174504 58 178 3.0 6.0 0.00 0.00 0.00 81 1018.6
20260505173005 57 159 2.0 9.0 0.00 0.00 0.00 82 1018.6
20260505171503 57 189 2.0 7.0 0.00 0.00 0.00 83 1018.6
20260505170004 57 158 2.0 5.0 0.00 0.00 0.00 83 1018.5
20260505164504 56 171 2.0 6.0 0.00 0.00 0.00 84 1018.5
20260505161505 56 155 3.0 7.0 0.00 0.00 0.00 86 1018.3
20260505153004 55 163 2.0 7.0 0.00 0.00 0.00 87 1018.0
20260505151503 55 168 2.0 6.0 0.00 0.00 0.00 87 1017.8
20260505124503 54 169 2.0 5.0 0.00 0.00 0.00 90 1016.4
20260505123004 54 170 2.0 5.0 0.00 0.00 0.00 90 1016.4
20260505121504 54 146 3.0 6.0 0.00 0.00 0.00 90 1016.2
20260505120005 54 159 2.0 7.0 0.00 0.00 0.00 90 1016.2
20260505113005 54 167 2.0 7.0 0.00 0.00 0.00 90 1016.1
20260505111504 54 182 1.0 4.0 0.00 0.00 0.00 90 1016.1
20260505101504 54 166 1.0 6.0 0.00 0.00 0.00 91 1015.6
20260505100004 54 169 3.0 7.0 0.00 0.00 0.00 91 1015.5
20260505094504 54 166 3.0 8.0 0.00 0.00 0.00 91 1015.5
20260505091503 54 177 1.0 4.0 0.00 0.00 0.00 92 1015.2
20260505090004 53 165 2.0 6.0 0.00 0.00 0.00 92 1015.1
20260505083004 54 179 1.0 3.0 0.00 0.00 0.00 91 1014.9
20260505081504 54 155 1.0 5.0 0.00 0.00 0.00 91 1014.9
20260505080007 54 163 2.0 5.0 0.00 0.00 0.00 90 1014.9
20260505074503 54 162 1.0 4.0 0.00 0.00 0.00 90 1014.9
20260505073004 54 165 1.0 5.0 0.00 0.00 0.00 89 1014.7
20260505071504 55 177 1.0 3.0 0.00 0.00 0.00 88 1014.6
20260505070005 56 156 1.0 3.0 0.00 0.00 0.00 87 1014.3
20260505064504 56 152 1.0 4.0 0.00 0.00 0.00 87 1014.2
20260505063004 57 172 1.0 4.0 0.00 0.00 0.00 86 1014.1
20260505061504 57 170 1.0 4.0 0.00 0.00 0.00 85 1013.9
20260505060004 58 147 1.0 5.0 0.00 0.00 0.00 84 1013.7
20260505054504 58 172 1.0 4.0 0.00 0.00 0.00 83 1013.3
20260505053004 59 154 1.0 6.0 0.00 0.00 0.00 82 1013.3
20260505051504 60 167 1.0 5.0 0.00 0.00 0.00 81 1013.2
20260505041505 62 0 0.0 0.0 0.00 0.00 0.00 76 1012.6
20260505040006 62 0 0.0 0.0 0.00 0.00 0.00 74 1012.4
20260505034505 64 0 0.0 0.0 0.00 0.00 0.00 74 1012.3
20260505033005 65 79 1.0 2.0 0.00 0.00 0.00 73 1011.9
20260505031509 66 47 0.0 1.0 0.00 0.00 0.00 72 1011.8
20260505030005 67 0 0.0 0.0 0.00 0.00 0.00 69 1011.8
20260505024506 68 0 0.0 0.0 0.00 0.00 0.00 68 1011.7
20260505023005 70 326 0.0 1.0 0.00 0.00 0.00 66 1011.7
20260505021505 72 7 1.0 2.0 0.00 0.00 0.00 62 1011.6
20260505020005 74 17 1.0 2.0 0.00 0.00 0.00 58 1011.5
20260505014506 77 163 2.0 5.0 0.00 0.00 0.00 54 1011.4
20260505013005 78 160 2.0 6.0 0.00 0.00 0.00 52 1011.4
20260505011508 78 168 2.0 6.0 0.00 0.00 0.00 53 1011.3
20260505010005 79 186 3.0 6.0 0.00 0.00 0.00 51 1011.5
20260505004504 79 181 3.0 6.0 0.00 0.00 0.00 51 1011.5
20260505003005 79 145 1.0 5.0 0.00 0.00 0.00 52 1011.5
20260505001504 79 151 1.0 6.0 0.00 0.00 0.00 52 1011.5
20260505000005 79 133 2.0 7.0 0.00 0.00 0.00 52 1011.5
20260504234505 80 146 1.0 5.0 0.00 0.00 0.00 50 1011.5
20260504233006 80 164 2.0 7.0 0.00 0.00 0.00 49 1011.5
20260504231505 80 182 0.0 4.0 0.00 0.00 0.00 50 1011.4
20260504230005 80 126 2.0 8.0 0.00 0.00 0.00 52 1011.6
20260504224505 79 109 2.0 7.0 0.00 0.00 0.00 50 1011.9
20260504223005 80 162 1.0 8.0 0.00 0.00 0.00 52 1012.0
20260504221505 80 196 2.0 7.0 0.00 0.00 0.00 47 1012.2
20260504220005 79 122 1.0 5.0 0.00 0.00 0.00 45 1012.4
20260504214505 78 189 2.0 8.0 0.00 0.00 0.00 51 1012.5
20260504213005 78 174 3.0 9.0 0.00 0.00 0.00 55 1012.6
20260504211504 77 178 3.0 7.0 0.00 0.00 0.00 56 1012.7
20260504204506 77 166 2.0 6.0 0.00 0.00 0.00 58 1012.8
20260504203005 77 172 4.0 9.0 0.00 0.00 0.00 57 1012.9
20260504201505 76 165 3.0 8.0 0.00 0.00 0.00 57 1012.8
20260504200005 76 156 2.0 8.0 0.00 0.00 0.00 60 1012.8
20260504194506 75 119 3.0 7.0 0.00 0.00 0.00 59 1013.0
20260504193005 75 157 2.0 6.0 0.00 0.00 0.00 56 1013.1
20260504191505 74 162 2.0 5.0 0.00 0.00 0.00 53 1013.2
20260504184505 74 111 2.0 6.0 0.00 0.00 0.00 49 1013.4